• In Russia
  • List of Countries
  • For 7 days
  • Water Temperature
  • Weather Map
  • Weather Widgets
  • user-avatar
    Login

    Hourly Weather Ordino

    Today, 29 January, Wednesday

    Time Temperature Precipitation Wind Pressure Humidity
    00:00 -1°C° 0 mm 1 mps 630 mmHg 69%
    01:00 -1°C° 0 mm 1 mps 630 mmHg 66%
    02:00 -1°C° 0 mm 1 mps 630 mmHg 64%
    03:00 -3°C° 0 mm 2 mps 630 mmHg 61%
    04:00 -3°C° 0 mm 2 mps 631 mmHg 64%
    05:00 -3°C° 0 mm 2 mps 631 mmHg 66%
    06:00 -3°C° 0 mm 2 mps 631 mmHg 70%
    07:00 -2°C° 0 mm 2 mps 632 mmHg 69%
    08:00 +2°C° 0 mm 1 mps 632 mmHg 69%
    09:00 +3°C° 0 mm 1 mps 633 mmHg 69%
    10:00 +4°C° 0 mm 1 mps 634 mmHg 69%
    11:00 +5°C° 0 mm 1 mps 634 mmHg 70%
    12:00 +7°C° 0 mm 1 mps 635 mmHg 70%
    13:00 +6°C° 0 mm 1 mps 634 mmHg 73%
    14:00 +5°C° 0 mm 0 mps 634 mmHg 76%
    15:00 +5°C° 0 mm 0 mps 633 mmHg 79%
    16:00 +5°C° 0 mm 1 mps 633 mmHg 77%
    17:00 +3°C° 0 mm 1 mps 632 mmHg 74%
    18:00 +2°C° 0 mm 1 mps 632 mmHg 72%
    19:00 +1°C° 0 mm 1 mps 632 mmHg 71%
    20:00 +1°C° 0 mm 1 mps 632 mmHg 70%
    21:00 +1°C° 0 mm 1 mps 632 mmHg 69%
    22:00 +1°C° 0 mm 1 mps 632 mmHg 71%
    23:00 +1°C° 0 mm 1 mps 632 mmHg 73%

    Tomorrow, 30 January, Thursday

    Time Temperature Precipitation Wind Pressure Humidity
    00:00 +2°C° 0 mm 1 mps 632 mmHg 75%
    01:00 +2°C° 0 mm 1 mps 632 mmHg 77%
    02:00 +3°C° 0 mm 1 mps 632 mmHg 80%
    03:00 +2°C° 0 mm 2 mps 632 mmHg 82%
    04:00 +4°C° 0.1 mm 1 mps 632 mmHg 85%
    05:00 +4°C° 0.1 mm 1 mps 633 mmHg 88%
    06:00 +4°C° 0.1 mm 1 mps 633 mmHg 91%
    07:00 +5°C° 0 mm 1 mps 633 mmHg 91%
    08:00 +4°C° 0 mm 0 mps 633 mmHg 92%
    09:00 +5°C° 0 mm 0 mps 634 mmHg 92%
    10:00 +5°C° 0.1 mm 0 mps 634 mmHg 92%
    11:00 +5°C° 0.1 mm 0 mps 634 mmHg 92%
    12:00 +6°C° 0.1 mm 0 mps 634 mmHg 92%
    13:00 +5°C° 0.1 mm 0 mps 633 mmHg 92%
    14:00 +5°C° 0.1 mm 0 mps 633 mmHg 93%
    15:00 +5°C° 0.1 mm 0 mps 632 mmHg 94%
    16:00 +5°C° 0 mm 0 mps 632 mmHg 94%
    17:00 +5°C° 0 mm 1 mps 632 mmHg 95%
    18:00 +5°C° 0 mm 1 mps 632 mmHg 96%
    19:00 +5°C° 0 mm 1 mps 633 mmHg 95%
    20:00 +4°C° 0 mm 1 mps 633 mmHg 95%
    21:00 +4°C° 0 mm 1 mps 633 mmHg 95%
    22:00 +4°C° 0 mm 1 mps 633 mmHg 94%
    23:00 +4°C° 0 mm 1 mps 633 mmHg 93%

    Day after tomorrow, 31 January, Friday

    Time Temperature Precipitation Wind Pressure Humidity
    00:00 +4°C° 0 mm 1 mps 633 mmHg 93%
    01:00 +4°C° 0 mm 1 mps 633 mmHg 92%
    02:00 +4°C° 0 mm 1 mps 633 mmHg 91%
    03:00 +4°C° 0 mm 1 mps 633 mmHg 91%
    04:00 +4°C° 0.1 mm 1 mps 633 mmHg 91%
    05:00 +4°C° 0.1 mm 1 mps 633 mmHg 92%
    06:00 +4°C° 0.1 mm 1 mps 633 mmHg 93%
    07:00 +5°C° 0.1 mm 1 mps 633 mmHg 93%
    08:00 +5°C° 0.1 mm 1 mps 634 mmHg 93%
    09:00 +6°C° 0.1 mm 1 mps 634 mmHg 93%
    10:00 +7°C° 0 mm 1 mps 634 mmHg 91%
    11:00 +7°C° 0 mm 0 mps 635 mmHg 88%
    12:00 +7°C° 0 mm 0 mps 635 mmHg 86%
    13:00 +7°C° 0 mm 0 mps 634 mmHg 87%
    14:00 +8°C° 0 mm 1 mps 634 mmHg 87%
    15:00 +8°C° 0 mm 1 mps 634 mmHg 88%
    16:00 +7°C° 0 mm 1 mps 633 mmHg 88%
    17:00 +5°C° 0 mm 1 mps 633 mmHg 89%
    18:00 +4°C° 0 mm 1 mps 632 mmHg 90%
    19:00 +4°C° 0 mm 1 mps 633 mmHg 87%
    20:00 +4°C° 0 mm 1 mps 633 mmHg 85%
    21:00 +4°C° 0 mm 1 mps 633 mmHg 83%
    22:00 +4°C° 0 mm 1 mps 633 mmHg 82%
    23:00 +4°C° 0 mm 1 mps 632 mmHg 81%

    1 February, Saturday

    Time Temperature Precipitation Wind Pressure Humidity
    00:00 +4°C° 0 mm 1 mps 632 mmHg 80%
    01:00 +4°C° 0 mm 1 mps 632 mmHg 79%
    02:00 +4°C° 0 mm 1 mps 632 mmHg 77%
    03:00 +4°C° 0 mm 1 mps 632 mmHg 76%
    04:00 +3°C° 0 mm 2 mps 632 mmHg 79%
    05:00 +3°C° 0 mm 2 mps 633 mmHg 83%
    06:00 +3°C° 0 mm 2 mps 633 mmHg 86%
    07:00 +4°C° 0.3 mm 2 mps 633 mmHg 88%
    08:00 +5°C° 0.3 mm 2 mps 634 mmHg 89%
    09:00 +6°C° 0.3 mm 2 mps 635 mmHg 90%
    10:00 +8°C° 0.2 mm 1 mps 635 mmHg 89%
    11:00 +8°C° 0.2 mm 1 mps 636 mmHg 87%
    12:00 +9°C° 0.2 mm 1 mps 636 mmHg 85%
    13:00 +9°C° 0.1 mm 1 mps 636 mmHg 86%
    14:00 +9°C° 0.1 mm 1 mps 636 mmHg 87%
    15:00 +9°C° 0.1 mm 1 mps 636 mmHg 88%
    16:00 +8°C° 0 mm 1 mps 636 mmHg 90%
    17:00 +6°C° 0 mm 1 mps 636 mmHg 92%
    18:00 +5°C° 0 mm 1 mps 636 mmHg 94%
    19:00 +5°C° 0 mm 1 mps 636 mmHg 94%
    20:00 +5°C° 0 mm 1 mps 636 mmHg 93%
    21:00 +3°C° 0 mm 2 mps 636 mmHg 92%
    22:00 +3°C° 0 mm 2 mps 636 mmHg 88%
    23:00 +4°C° 0 mm 1 mps 636 mmHg 84%

    2 February, Sunday

    Time Temperature Precipitation Wind Pressure Humidity
    00:00 +4°C° 0 mm 1 mps 636 mmHg 81%
    01:00 +3°C° 0 mm 2 mps 636 mmHg 78%
    02:00 +3°C° 0 mm 2 mps 636 mmHg 76%
    03:00 +3°C° 0 mm 2 mps 636 mmHg 73%
    04:00 +3°C° 0 mm 2 mps 636 mmHg 72%
    05:00 +3°C° 0 mm 2 mps 636 mmHg 71%
    06:00 +4°C° 0 mm 2 mps 636 mmHg 70%
    07:00 +5°C° 0 mm 2 mps 637 mmHg 69%
    08:00 +7°C° 0 mm 1 mps 637 mmHg 69%
    09:00 +8°C° 0 mm 1 mps 638 mmHg 69%
    10:00 +9°C° 0 mm 1 mps 638 mmHg 68%
    11:00 +10°C° 0 mm 0 mps 639 mmHg 67%
    12:00 +11°C° 0 mm 0 mps 639 mmHg 66%
    13:00 +11°C° 0 mm 0 mps 639 mmHg 68%
    14:00 +11°C° 0 mm 0 mps 639 mmHg 69%
    15:00 +11°C° 0 mm 0 mps 639 mmHg 71%
    16:00 +9°C° 0 mm 0 mps 638 mmHg 71%
    17:00 +9°C° 0 mm 1 mps 638 mmHg 71%
    18:00 +7°C° 0 mm 1 mps 637 mmHg 71%
    19:00 +7°C° 0 mm 1 mps 637 mmHg 68%
    20:00 +7°C° 0 mm 1 mps 638 mmHg 65%
    21:00 +7°C° 0 mm 1 mps 638 mmHg 63%
    22:00 +7°C° 0 mm 1 mps 638 mmHg 61%
    23:00 +7°C° 0 mm 1 mps 637 mmHg 60%

    3 February, Monday

    Time Temperature Precipitation Wind Pressure Humidity
    00:00 +7°C° 0 mm 1 mps 637 mmHg 58%
    01:00 +6°C° 0 mm 2 mps 637 mmHg 60%
    02:00 +6°C° 0 mm 2 mps 637 mmHg 61%
    03:00 +6°C° 0 mm 2 mps 637 mmHg 63%
    04:00 +6°C° 0 mm 2 mps 636 mmHg 64%
    05:00 +6°C° 0 mm 2 mps 636 mmHg 66%
    06:00 +7°C° 0 mm 1 mps 636 mmHg 67%
    07:00 +8°C° 0 mm 1 mps 637 mmHg 67%
    08:00 +9°C° 0 mm 1 mps 637 mmHg 67%
    09:00 +10°C° 0 mm 1 mps 638 mmHg 67%
    10:00 +12°C° 0 mm 1 mps 638 mmHg 65%
    11:00 +13°C° 0 mm 1 mps 639 mmHg 63%
    12:00 +15°C° 0 mm 1 mps 639 mmHg 61%
    13:00 +14°C° 0 mm 1 mps 639 mmHg 63%
    14:00 +14°C° 0 mm 1 mps 638 mmHg 64%
    15:00 +14°C° 0 mm 1 mps 638 mmHg 66%
    16:00 +12°C° 0 mm 1 mps 637 mmHg 69%
    17:00 +10°C° 0 mm 1 mps 636 mmHg 73%
    18:00 +8°C° 0 mm 1 mps 636 mmHg 76%
    19:00 +8°C° 0 mm 1 mps 636 mmHg 74%
    20:00 +7°C° 0 mm 1 mps 636 mmHg 72%
    21:00 +7°C° 0 mm 1 mps 636 mmHg 70%
    22:00 +6°C° 0 mm 2 mps 636 mmHg 70%
    23:00 +6°C° 0 mm 2 mps 635 mmHg 70%
    Show more